MyTimes logo

TIMES

Webb Imagery

3/01/2016
Phillip Island Swim Classic
2.0km

(Click on competitor name to view personalised results)

Name
Race #
Category
Time
(h:mm:ss)
Avg Speed
km/hr
OAll
Place
Cat
Place
WILSON Dean#319Junior Male0:20:15"10:08 " 11
MCGUIRE Nick#717Open Male0:20:29"10:15 " 21
WILDES Adam#307Junior Male0:20:36"10:18 " 32
STUBBINS Kelly#501Senior Female0:21:41"10:50 " 41
GUILLE Tim#711Senior Male0:22:13"11:07 " 51
CURNOW Warren#736Senior Male0:22:25"11:12 " 62
BOND Marcus#715Mature Male0:22:38"11:19 " 71
HAZEL Phil#703Mature Male0:22:44"11:22 " 82
MAYES Linus#329Junior Male0:23:02"11:31 " 93
WATKINS Georgia#312Junior Female0:23:02"11:31 " 101
FOOTE Nathan#321Junior Male0:23:03"11:31 " 114
NORMAN Jeff#333Veteran Male0:23:09"11:34 " 121
ANDERSON David#305Veteran Male0:23:17"11:38 " 132
MAGANN Jarrod#726Open Male0:23:30"11:45 " 142
CAPLE Alex#734Senior Male0:23:35"11:47 " 153
CHAPLIN Greg#330Veteran Male0:23:37"11:48 " 163
FLEISNER Rob#343Veteran Male0:24:00"12:00 " 174
CHAPMAN Jordan#308Junior Male0:24:05"12:03 " 185
SCREEN Alex#743Mature Male0:24:14"12:07 " 193
CURNOW Edward#731Open Male0:24:32"12:16 " 203
GIBSON Tom#352Veteran Male0:24:38"12:19 " 215
WALLACE-SMITH Jono#708Open Male0:24:49"12:24 " 224
LUKE Madeline#338Junior Female0:24:49"12:24 " 232
WHITE Cameron#719Senior Male0:24:53"12:27 " 244
SORENSEN Michael#315Veteran Male0:24:53"12:27 " 256
MURDOCH Taya#316Junior Female0:24:58"12:29 " 263
VANDERKOLK Mayson#318Junior Female0:25:00"12:30 " 274
LEA Matthew#722Senior Male0:25:13"12:36 " 285
CHRISTIE-JOHNST Dugald#710Mature Male0:25:43"12:51 " 294
BRODERICK Emily#326Junior Female0:25:53"12:56 " 305
MAHON Debbi#517Senior Female0:26:07"13:03 " 312
ONLEY Thomas#739Open Male0:26:32"13:16 " 325
HARRIS Kris#729Mature Male0:26:40"13:20 " 335
GORDON Michael#337Super Veteran Male0:26:50"13:25 " 341
CLARK John Paul#709Senior Male0:26:56"13:28 " 356
MAGANN Jake#725Open Male0:26:58"13:29 " 366
HAUSLER Ruby#336Junior Female0:26:58"13:29 " 376
CURTIS Brad#349Veteran Male0:27:04"13:32 " 387
WATKINS William#313Veteran Male0:27:06"13:33 " 398
TRAVERS Graham#325Super Veteran Male0:27:07"13:34 " 402
SOUTHALL Lauren#339Junior Female0:27:11"13:35 " 417
VANDEN DUNGEN Richard#344Veteran Male0:27:11"13:35 " 429
PRESTON Simon#712Open Male0:27:15"13:37 " 437
ACKLAND Nathan#718Senior Male0:27:18"13:39 " 447
MOSSE Peter#345Super Veteran Male0:27:22"13:41 " 453
HARRY Kevin#721Senior Male0:27:25"13:42 " 468
SIMMANCE Andre#716Mature Male0:27:29"13:45 " 476
O'DONOHUE Mark#342Veteran Male0:27:29"13:45 " 4810
BARRETT Adam#740Mature Male0:27:34"13:47 " 497
RIED Karin#505Mature Female0:27:51"13:55 " 501
PORTER Michael#704Mature Male0:27:55"13:57 " 518
CAPLE Sally#518Open Female0:28:02"14:01 " 521
JORDAN Tom#713Open Male0:28:03"14:02 " 538
COX Bill#317Veteran Male0:28:03"14:02 " 5411
THERIAULT David#340Super Veteran Male0:28:37"14:19 " 554
LYFORD Kimberley#522Open Female0:28:45"14:23 " 562
VILLOCH Inigo#714Senior Male0:28:48"14:24 " 579
VANDEN DUNGEN Tim#738Senior Male0:28:49"14:25 " 5810
MOORE Emma#507Mature Female0:28:49"14:25 " 592
MAY Richard#741Mature Male0:28:55"14:27 " 609
CLARK Dawn#327Super Veteran Female0:28:56"14:28 " 611
MORRISON Steve#732Mature Male0:29:14"14:37 " 6210
O'SHANNESSY Peter#350Veteran Male0:29:17"14:38 " 6312
EMERY Mick#314Veteran Male0:29:21"14:40 " 6413
NEVINS Rachael#509Senior Female0:29:26"14:43 " 653
MORRISON Kerry#355Veteran Female0:29:27"14:43 " 661
GAZZARD Kate#515Open Female0:29:32"14:46 " 673
KAMINSKI Peter#303Veteran Male0:29:32"14:46 " 6814
NEVINS Susan#304Veteran Female0:29:33"14:46 " 692
MOSSE Kate#520Open Female0:29:36"14:48 " 704
PRIESTLEY Jonathon#733Open Male0:29:59"14:59 " 719
WEBBER Simone#347Veteran Female0:30:18"15:09 " 723
MARSHALL Sarah#519Mature Female0:30:19"15:09 " 733
MANNING Simon#320Veteran Male0:30:19"15:09 " 7415
WEBBER Neil#348Veteran Male0:30:20"15:10 " 7516
FURNISS Simon#723Mature Male0:30:24"15:12 " 7611
FARMER Momique#508Open Female0:30:40"15:20 " 775
PRYOR Anthony#728Senior Male0:30:43"15:22 " 7811
STAFFORD Claire#503Open Female0:30:46"15:23 " 796
INFANTINO Simona#524Senior Female0:30:46"15:23 " 804
GRANT Margi#309Veteran Female0:30:54"15:27 " 814
WALKER Hannah#599Open Female0:31:14"15:37 " 827
TAYLOR Sam#727Senior Male0:31:16"15:38 " 8312
PRITCHARD Ronnie#504Mature Female0:31:18"15:39 " 844
ACKLAND Michael#720Mature Male0:31:19"15:39 " 8512
WOOD Arron#705Mature Male0:31:22"15:41 " 8613
CLARK Greg#328Super Veteran Male0:31:46"15:53 " 875
BREWSTER David#706Mature Male0:31:47"15:53 " 8814
WRIGHT Michael#702Mature Male0:31:57"15:58 " 8915
FITZGERALD Richard#331Veteran Male0:32:07"16:04 " 9017
PEDDLE Richard#735Mature Male0:32:18"16:09 " 9116
CLANCY Chay-Ya#506Senior Female0:32:19"16:10 " 925
MOSSE Tony#346Veteran Male0:32:27"16:14 " 9318
WALKER Sally#324Junior Female0:32:33"16:17 " 948
WALKER Mark#322Veteran Male0:32:35"16:18 " 9519
WATTS John#707Mature Male0:32:39"16:20 " 9617
MCBRIEN Mardi#502Senior Female0:32:50"16:25 " 976
LLOYD Karen#510Mature Female0:32:51"16:26 " 985
MACAFFER Susan#523Mature Female0:33:14"16:37 " 996
HIBBLE Jenny#311Veteran Female0:34:10"17:05 " 1005
CLEELAND Mike#351Veteran Male0:35:18"17:39 " 10120
BRODERICK Deb#512Mature Female0:35:36"17:48 " 1027
WILLIS Eddy#354Veteran Female0:35:51"17:55 " 1036
THOMSON Jenine#335Super Veteran Female0:38:04"19:02 " 1042
CLEELAND Pip#521Mature Female0:39:09"19:34 " 1058